Weather History for Emporia, KS

Change the Weather History Date:

Thursday, January 10, 2013

  Actual Average Record
Temperature  
Mean Temperature 43 °F 31 °F  
Max Temperature 46 °F 41 °F 56 °F (2012)
Min Temperature 39 °F 21 °F 1 °F (1997)
Degree Days  
Heating Degree Days 22 34  
Month to date heating degree days 322 340  
Since 1 July heating degree days 2078 2273  
Cooling Degree Days 0 0  
Month to date cooling degree days 0 0  
Year to date cooling degree days 0 0  
Moisture  
Dew Point 41 °F    
Average Humidity 81    
Maximum Humidity 100    
Minimum Humidity 62    
Precipitation  
Precipitation 0.24 in 0.01 in 0.24 in (2011)
Month to date precipitation 0.28 0.11  
Year to date precipitation 0.28 0.11  
Sea Level Pressure  
Sea Level Pressure 29.94 in    
Wind  
Wind Speed 7 mph (ESE)    
Max Wind Speed 15 mph    
Max Gust Speed 20 mph    
Visibility 3 miles    
Events Fog , Rain    
T = Trace of Precipitation, MM = Missing Value Source: NWS Daily Summary

Daily Weather History Graph

Daily Weather History Graph

Search for Another Location

Airport:

Trip Planner

Search our weather history database for the weather conditions in past years. The results will help you decide how hot, cold, wet, or windy it might be!

Date:

Astronomy

Jan. 10, 2013 Rise Set
Actual Time 7:41 AM CST 5:23 PM CST
Civil Twilight 7:12 AM CST 5:52 PM CST
Nautical Twilight 6:39 AM CST 6:25 PM CST
Astronomical Twilight 6:07 AM CST 6:57 PM CST
Moon 6:22 AM CST (1/10) 4:32 PM CST (1/10)
Length of Visible Light 10h 40m
Length of Day
9h 41m
Waning Crescent, 2% of the Moon is Illuminated
Jan 10
Waning Crescent
Jan 11
New
Jan 18
First Quarter
Jan 26
Full
Feb 3
Last Quarter

Hourly Weather History & Observations

Time (CST) Temp. Windchill Dew Point Humidity Pressure Visibility Wind Dir Wind Speed Gust Speed Precip Events Conditions
12:53 AM 41.0 °F 36.4 °F 30.9 °F 67% 30.29 in 10.0 mi East 6.9 mph - N/A   Clear
1:53 AM 42.1 °F 37.1 °F 30.9 °F 65% 30.27 in 10.0 mi East 8.1 mph - N/A   Overcast
2:53 AM 41.0 °F 35.2 °F 33.1 °F 73% 30.25 in 10.0 mi ENE 9.2 mph - 0.00 in Rain Light Rain
3:17 AM 41.0 °F 33.9 °F 33.8 °F 76% 30.21 in 8.0 mi East 12.7 mph - 0.00 in Rain Light Rain
4:43 AM 39.2 °F 32.0 °F 37.4 °F 93% 30.14 in 2.0 mi East 11.5 mph - N/A Rain Rain
4:53 AM 39.9 °F 33.4 °F 37.0 °F 89% 30.16 in 9.0 mi East 10.4 mph - 0.04 in   Overcast
5:32 AM 39.2 °F 31.2 °F 37.4 °F 93% 30.11 in 4.0 mi East 13.8 mph - 0.02 in Rain Light Rain
5:40 AM 39.2 °F 32.0 °F 37.4 °F 93% 30.11 in 2.0 mi East 11.5 mph - 0.03 in Rain Light Rain
6:26 AM 39.2 °F 32.0 °F 37.4 °F 93% 30.10 in 2.0 mi East 11.5 mph - 0.01 in Rain Light Rain
6:37 AM 39.2 °F 32.0 °F 37.4 °F 93% 30.09 in 5.0 mi East 11.5 mph - 0.01 in Rain Light Rain
6:51 AM 39.2 °F 32.0 °F 37.4 °F 93% 30.08 in 2.5 mi East 11.5 mph - 0.02 in Rain Light Rain
6:53 AM 39.0 °F 31.8 °F 37.9 °F 96% 30.11 in 2.5 mi East 11.5 mph - 0.02 in Rain Light Rain
7:02 AM 39.2 °F 32.5 °F 37.4 °F 93% 30.08 in 3.0 mi East 10.4 mph - 0.00 in Rain Light Rain
7:53 AM 39.0 °F 31.8 °F 37.9 °F 96% 30.09 in 6.0 mi East 11.5 mph - 0.00 in   Overcast
8:41 AM 39.2 °F 31.6 °F 39.2 °F 100% 30.04 in 1.8 mi East 12.7 mph - N/A   Overcast
8:45 AM 39.2 °F 31.6 °F 39.2 °F 100% 30.03 in 1.2 mi East 12.7 mph - N/A   Overcast
8:53 AM 39.9 °F 32.5 °F 39.0 °F 97% 30.05 in 1.0 mi East 12.7 mph - N/A   Overcast
9:17 AM 41.0 °F 34.3 °F 39.2 °F 93% 30.02 in 1.5 mi East 11.5 mph - N/A   Overcast
9:27 AM 41.0 °F 34.3 °F 39.2 °F 93% 30.02 in 1.2 mi ESE 11.5 mph - N/A   Overcast
9:46 AM 41.0 °F 34.3 °F 39.2 °F 93% 30.01 in 1.5 mi ESE 11.5 mph - N/A   Overcast
9:53 AM 41.0 °F 34.7 °F 39.9 °F 96% 30.03 in 1.2 mi ESE 10.4 mph - 0.00 in Rain Light Rain
10:03 AM 42.8 °F 36.6 °F 41.0 °F 93% 30.00 in 2.0 mi ESE 11.5 mph - 0.01 in Rain Light Rain
10:41 AM 42.8 °F 37.5 °F 41.0 °F 93% 29.96 in 4.0 mi ESE 9.2 mph - 0.02 in Rain Light Rain
10:53 AM 42.1 °F 35.7 °F 41.0 °F 96% 29.99 in 3.0 mi ESE 11.5 mph - 0.03 in Rain Light Rain
11:06 AM 42.8 °F 37.0 °F 41.0 °F 93% 29.96 in 3.0 mi ESE 10.4 mph - 0.01 in Rain Light Rain
11:15 AM 42.8 °F 38.6 °F 41.0 °F 93% 29.95 in 1.8 mi ESE 6.9 mph - 0.03 in Rain Rain
11:34 AM 42.8 °F 37.0 °F 42.8 °F 100% 29.93 in 3.0 mi ESE 10.4 mph - 0.04 in Rain Light Rain
11:53 AM 43.0 °F 37.7 °F 42.1 °F 97% 29.95 in 3.0 mi ESE 9.2 mph - 0.05 in Rain Light Rain
12:01 PM 44.6 °F 39.7 °F 42.8 °F 93% 29.92 in 2.0 mi ESE 9.2 mph - 0.00 in Rain Light Rain
12:14 PM 44.6 °F 40.2 °F 42.8 °F 93% 29.91 in 1.5 mi SE 8.1 mph - 0.00 in   Overcast
12:22 PM 44.6 °F 40.2 °F 42.8 °F 93% 29.90 in 1.2 mi ESE 8.1 mph - 0.00 in   Overcast
12:31 PM 44.6 °F 39.2 °F 42.8 °F 93% 29.89 in 1.8 mi ESE 10.4 mph - 0.00 in   Overcast
12:39 PM 44.6 °F 39.7 °F 42.8 °F 93% 29.88 in 2.5 mi ESE 9.2 mph - 0.00 in   Overcast
12:53 PM 45.0 °F 40.6 °F 44.1 °F 97% 29.90 in 4.0 mi ESE 8.1 mph - 0.00 in   Overcast
1:53 PM 45.0 °F 43.5 °F 44.1 °F 97% 29.86 in 6.0 mi ESE 3.5 mph - 0.01 in Rain Light Rain
2:30 PM 44.6 °F 42.2 °F 44.6 °F 100% 29.84 in 2.0 mi ESE 4.6 mph - 0.00 in   Overcast
2:41 PM 44.6 °F - 44.6 °F 100% 29.84 in 1.8 mi Calm Calm - 0.00 in   Overcast
2:48 PM 44.6 °F - 44.6 °F 100% 29.84 in 1.0 mi Calm Calm - 0.01 in Rain Light Rain
2:53 PM 45.0 °F - 44.1 °F 97% 29.86 in 1.0 mi Calm Calm - 0.01 in Rain Light Rain
3:07 PM 46.4 °F 44.3 °F 44.6 °F 93% 29.83 in 1.2 mi East 4.6 mph - 0.00 in Rain Light Rain
3:15 PM 46.4 °F 44.3 °F 44.6 °F 93% 29.83 in 1.8 mi East 4.6 mph - 0.01 in Rain Light Rain
3:22 PM 46.4 °F 44.3 °F 44.6 °F 93% 29.82 in 2.5 mi East 4.6 mph - 0.01 in   Overcast
3:30 PM 46.4 °F 44.3 °F 44.6 °F 93% 29.82 in 4.0 mi East 4.6 mph - 0.01 in   Overcast
3:53 PM 46.0 °F 44.8 °F 45.0 °F 96% 29.85 in 10.0 mi East 3.5 mph - 0.01 in   Overcast
4:14 PM 46.4 °F - 44.6 °F 93% 29.83 in 7.0 mi Calm Calm - N/A   Overcast
4:36 PM 46.4 °F - 44.6 °F 93% 29.83 in 2.0 mi Calm Calm - N/A   Overcast
4:42 PM 46.4 °F 44.3 °F 44.6 °F 93% 29.83 in 1.2 mi SE 4.6 mph - N/A   Overcast
4:53 PM 46.0 °F - 45.0 °F 96% 29.85 in 0.8 mi Calm Calm - 0.00 in Rain Light Rain
5:34 PM 44.6 °F 40.7 °F 44.6 °F 100% 29.80 in 1.0 mi East 6.9 mph - 0.00 in   Mist
5:41 PM 44.6 °F 40.7 °F 44.6 °F 100% 29.79 in 0.5 mi East 6.9 mph - 0.00 in Fog Fog
5:53 PM 45.0 °F 40.6 °F 44.1 °F 97% 29.80 in 0.2 mi ENE 8.1 mph - 0.00 in Fog Fog
6:53 PM 45.0 °F 43.5 °F 44.1 °F 97% 29.82 in 0.5 mi South 3.5 mph - N/A Fog Fog
7:53 PM 45.0 °F 43.5 °F 44.1 °F 97% 29.79 in 0.2 mi SSE 3.5 mph - N/A Fog Fog
8:53 PM 45.0 °F 41.8 °F 43.0 °F 93% 29.80 in 0.2 mi SE 5.8 mph - 0.01 in Fog Fog
9:50 PM 44.6 °F 41.4 °F 44.6 °F 100% 29.77 in 0.5 mi South 5.8 mph - N/A Fog Fog
9:53 PM 45.0 °F 41.8 °F 44.1 °F 97% 29.79 in 0.5 mi SSE 5.8 mph - 0.00 in Fog , Rain Light Rain
10:22 PM 44.6 °F 41.4 °F 44.6 °F 100% 29.76 in 1.0 mi South 5.8 mph - 0.00 in   Overcast
10:40 PM 44.6 °F 40.7 °F 44.6 °F 100% 29.76 in 1.5 mi South 6.9 mph - 0.00 in   Overcast
11:10 PM 44.6 °F 40.7 °F 44.6 °F 100% 29.74 in 1.0 mi South 6.9 mph - N/A   Overcast
11:31 PM 46.4 °F 42.9 °F 44.6 °F 93% 29.74 in 1.2 mi South 6.9 mph - N/A   Overcast
11:40 PM 46.4 °F 42.9 °F 44.6 °F 93% 29.74 in 1.0 mi SSE 6.9 mph - N/A   Overcast
11:53 PM 46.0 °F 41.0 °F 45.0 °F 96% 29.76 in 0.8 mi South 10.4 mph - N/A   Mist